This is the latest recevied weather packets stored in our database for station/object N5CSU. If no packets are shown the sender has not sent any weather packets the latest 10 day(s).
| Time | Temp. | Humidity | Pressure | Rain* | Wind** | Luminosity | Snow |
|---|---|---|---|---|---|---|---|
| 1777998006 | 26.11° C | 76% | 1005.3 hPa | 0 mm | - | 73 W/m² | - |
| 1777997702 | 26.11° C | 75% | 1005.4 hPa | 0 mm | - | 106 W/m² | - |
| 1777997399 | 26.11° C | 76% | 1005.4 hPa | 0 mm | - | 87 W/m² | - |
| 1777997098 | 25.56° C | 75% | 1005.5 hPa | 0 mm | - | 177 W/m² | - |
| 1777996794 | 25.56° C | 77% | 1005.4 hPa | 0 mm | - | 135 W/m² | - |
| 1777996491 | 25.56° C | 77% | 1005.4 hPa | 0 mm | - | 51 W/m² | - |
| 1777996187 | 25.56° C | 78% | 1005.4 hPa | 0 mm | - | 36 W/m² | - |
| 1777995884 | 25.56° C | 77% | 1005.3 hPa | 0 mm | - | 32 W/m² | - |
| 1777995580 | 25.56° C | 77% | 1005.5 hPa | 0 mm | - | 39 W/m² | - |
| 1777995278 | 25.56° C | 77% | 1005.5 hPa | 0 mm | - | 38 W/m² | - |
| 1777994974 | 25.56° C | 79% | 1005.6 hPa | 0 mm | - | 39 W/m² | - |
| 1777994666 | 25° C | 79% | 1005.6 hPa | 0 mm | - | 38 W/m² | - |
| 1777994365 | 25° C | 80% | 1005.5 hPa | 0 mm | - | 34 W/m² | - |
| 1777994062 | 24.44° C | 81% | 1005.6 hPa | 0 mm | - | 31 W/m² | - |
| 1777993759 | 24.44° C | 82% | 1005.6 hPa | 0 mm | - | 28 W/m² | - |
| 1777993456 | 24.44° C | 82% | 1005.7 hPa | 0 mm | - | 27 W/m² | - |
| 1777993150 | 24.44° C | 82% | 1005.7 hPa | 0 mm | - | 24 W/m² | - |
| 1777992849 | 23.89° C | 82% | 1005.9 hPa | 0 mm | - | 22 W/m² | - |
| 1777992547 | 23.89° C | 82% | 1005.8 hPa | 0 mm | - | 19 W/m² | - |
| 1777992244 | 23.89° C | 82% | 1005.7 hPa | 0 mm | - | 18 W/m² | - |
| 1777991941 | 23.89° C | 82% | 1005.6 hPa | 0 mm | - | 19 W/m² | - |
| 1777991638 | 23.89° C | 83% | 1005.5 hPa | 0 mm | - | 20 W/m² | - |
| 1777991335 | 23.89° C | 82% | 1005.6 hPa | 0 mm | - | 20 W/m² | - |
| 1777991033 | 23.89° C | 83% | 1005.4 hPa | 0 mm | - | 22 W/m² | - |
| 1777990730 | 23.33° C | 84% | 1005.4 hPa | 0 mm | - | 20 W/m² | - |
* Rain latest hour (hover to see other rain measurements)
** Current wind speed in m/s (hover to see current wind gust speed)